[[{"header":{"parameterUnit":"m.s-1","parameterCategory":1,"la1":30.2991,"la2":30.254,"lo1":-89.0895,"lo2":-89.0444,"dy":0.0017,"dx":0.0017,"nx":28,"ny":28,"refTime":"2024-08-16T21:00:00:Z","depth":0,"parameterNumber":2,"parameterNumberName":"U-component_of_WINDS"},"data":[0,0,0,0,0,0,0,0,0,0,0,0,0,0,0,0,0,0,0,0,0,0,0,0,0,0,0,0,0,0,0,0,0,0,0,0,0,0,0,0,0,0,0,0,0,0,0,0,0,0,0,0,0,0,0,0,0,0,4.3641,4.3642,0,4.3763,4.3765,4.3766,4.3691,4.3687,4.3683,4.368,4.3807,4.3813,4.382,0,0,0,0,0,0,0,0,0,0,0,0,0,4.3342,4.3348,4.3641,4.3642,4.3644,4.3763,4.3765,4.3766,4.3691,4.3687,4.3682,4.3678,4.3805,4.3812,4.3821,0,0,0,0,0,0,0,0,0,0,0,0,0,4.3469,4.3349,4.3641,4.3621,4.362,4.3763,4.3765,4.3767,4.3692,4.3687,4.3681,4.3676,4.3802,4.3812,4.3822,4.3991,0,0,4.3852,4.3857,0,0,0,0,0,0,0,0,4.3462,4.348,4.3622,4.3622,4.3622,4.3706,4.3705,4.3842,4.3693,4.3665,4.368,4.3674,4.3778,4.3789,4.3824,4.3997,4.4002,4.3853,4.3859,4.3864,4.3867,0,0,0,0,0,0,0,4.3453,4.3474,4.3689,4.3624,4.3624,4.3605,4.3618,4.3731,4.375,4.3667,4.3662,4.3677,4.3777,4.3815,4.3827,4.4004,4.3853,4.3862,4.3868,4.3872,4.4318,4.4324,0,0,0,0,0,0,4.3445,4.3467,4.3685,4.3693,4.3527,4.3615,4.3629,4.3685,4.3748,4.3753,4.3682,4.3673,4.38,4.3815,4.3831,4.403,4.3864,4.3873,4.3879,4.4313,4.432,4.4326,0,0,0,0,0,0,4.3439,4.3466,4.368,4.3579,4.3605,4.3626,4.3689,4.369,4.3728,4.3759,4.3762,4.3717,4.3796,4.3817,4.3951,4.4034,4.3878,4.3887,4.4306,4.4315,4.4323,4.4433,0,0,0,0,0,0,4.3431,4.3464,4.3529,4.3581,4.361,4.3799,4.3694,4.3696,4.3745,4.3735,4.3793,4.3798,4.3794,4.3936,4.3961,4.4045,4.3895,4.4298,4.431,4.432,4.4422,4.4445,4.4464,0,0,0,0,0,4.3421,4.3556,4.3533,4.3559,4.3692,4.3804,4.3821,4.3813,4.3752,4.3817,4.3837,4.3796,4.4021,4.3951,4.3978,4.4066,4.4293,4.4306,4.4319,4.4413,4.444,4.4463,0,0,0,0,0,0,4.3515,4.3563,4.3537,4.3693,4.3745,4.3791,4.3873,4.3843,4.3913,4.3901,4.3888,4.3902,4.4041,4.4067,4.3988,4.4232,4.4147,4.4167,4.4209,4.4236,4.4256,4.4246,4.3903,0,0,0,0,0,4.3553,4.364,4.3678,4.3812,4.3839,4.3852,4.39,4.3889,4.3943,4.3964,4.3994,4.4048,4.413,4.4184,4.4262,4.4426,4.4436,4.45,4.4521,4.4537,4.4554,4.4639,4.4667,4.4369,4.4369,4.4369,0,0,4.3635,4.3672,4.3728,4.3832,4.387,4.396,4.3871,4.397,4.4036,4.398,4.4107,4.4131,4.4189,4.4338,4.4405,4.4364,4.4638,4.4554,4.4567,4.4575,4.4655,4.4683,4.4708,4.4378,4.4376,4.4375,0,0,4.3828,4.3866,4.398,4.402,4.4079,4.4086,4.4114,4.4164,4.4177,4.4305,4.4264,4.4342,4.4485,4.4527,4.4568,4.4774,4.4738,4.48,4.4909,4.4992,4.5015,4.5036,4.5107,4.5133,4.4817,4.4817,4.4817,0,4.3922,4.4055,4.4043,4.4144,4.419,4.4142,4.4257,4.4297,4.4379,4.4412,4.4364,4.454,4.4577,4.4733,4.4783,4.4819,4.4848,4.4793,4.5013,4.5033,4.5053,4.512,4.5147,4.4824,4.4823,4.4822,4.4822,0,4.4165,4.4258,4.4344,4.4422,4.4478,4.4586,4.459,4.4648,4.4632,4.4643,4.4773,4.4814,4.4898,4.4935,4.4921,4.5089,4.5061,4.5014,4.4929,4.5088,4.5151,4.5177,4.4834,4.4831,4.4829,4.4828,0,0,4.4422,4.4491,4.4522,4.4556,4.4616,4.4688,4.4793,4.4874,4.4922,4.4981,4.5067,4.5188,4.5143,4.5189,4.5179,4.5253,4.541,4.5196,4.5197,4.5232,4.5594,4.5628,4.5658,4.5387,4.5392,4.5396,4.5588,0,4.4617,4.4799,4.479,4.4961,4.5045,4.5,4.509,4.5137,4.5151,4.5224,4.5239,4.5323,4.526,4.5287,4.5358,4.5376,4.5482,4.5363,4.5466,4.547,4.545,4.5692,4.5728,4.5907,4.5613,4.5618,4.5621,0,4.4869,4.4933,4.5111,4.5157,4.5192,4.5274,4.5345,4.5417,4.5468,4.5472,4.5522,4.55,4.5605,4.5518,4.5661,4.558,4.5621,4.5637,4.5643,4.5651,4.5554,4.5704,4.5965,4.5991,4.566,4.5657,4.5654,0,4.5034,4.5166,4.5289,4.5319,4.5376,4.5434,4.5461,4.5507,4.5555,4.5618,4.5649,4.5724,4.5765,4.5823,4.582,4.5758,4.5965,4.5878,4.597,4.597,4.6014,4.6011,4.6283,4.6045,4.6045,4.6044,4.6044,0,4.5252,4.5362,4.5363,4.5439,4.556,4.5549,4.567,4.569,4.5731,4.5808,4.5775,4.5848,4.5842,4.5916,4.5916,4.6032,4.6052,4.6057,4.6055,4.6059,4.6058,4.6085,4.6072,4.6052,4.605,4.6049,4.6047,0,4.5457,4.5463,4.5593,4.5635,4.5648,4.5736,4.5771,4.5842,4.5852,4.5951,4.5973,4.5989,4.6074,4.6078,4.6177,4.6176,4.6318,4.6303,4.63,4.6296,4.6386,4.6377,4.6684,4.6722,4.6461,4.6464,4.6466,0,4.5594,4.5678,4.5728,4.5777,4.5806,4.5887,4.5935,4.5927,4.5978,4.6041,4.6104,4.6186,4.625,4.6389,4.6409,4.6483,4.6469,4.6571,4.648,4.648,4.6467,4.6461,4.6468,4.6588,4.6591,4.6593,4.6595,0,4.5836,4.5834,4.5905,4.5976,4.6034,4.6091,4.6142,4.6185,4.6182,4.6242,4.6328,4.6378,4.6477,4.6558,4.663,4.6656,4.6625,4.6624,4.6649,4.6652,4.6646,4.6647,4.6346,4.6617,4.6615,4.6613,4.6612,4.6611,4.601,4.6081,4.6126,4.6205,4.6243,4.6292,4.6359,4.6377,4.6448,4.6527,4.6518,4.6613,4.666,4.6753,4.6785,4.6859,4.6823,4.686,4.6868,4.6877,4.6885,4.6636,4.6872,4.6871,4.6871,4.687,4.687,0,4.6248,4.6274,4.6347,4.642,4.6481,4.6446,4.6501,4.6555,4.6638,4.6684,4.6748,4.6845,4.6923,4.6948,4.7023,4.7077,4.7064,4.7096,4.7091,4.7097,4.6914,4.6884,4.7105,4.7105,4.7105,4.7105,4.7105,4.7105,4.6379,4.6495,4.6498,4.6633,4.6658,4.675,4.6784,4.6828,4.6864,4.6974,4.7037,4.7053,4.709,4.7167,4.7236,4.7241,4.7269,4.7307,4.7306,4.7134,4.711,4.7088,4.7059,4.7314,4.7314,4.7482,4.7484,4.7485]},{"header":{"parameterUnit":"m.s-1","parameterCategory":1,"la1":30.2991,"la2":30.254,"lo1":-89.0895,"lo2":-89.0444,"dy":0.0017,"dx":0.0017,"nx":28,"ny":28,"refTime":"2024-08-16T21:00:00:Z","depth":0,"parameterNumber":3,"parameterNumberName":"V-component_of_WINDS"},"data":[0,0,0,0,0,0,0,0,0,0,0,0,0,0,0,0,0,0,0,0,0,0,0,0,0,0,0,0,0,0,0,0,0,0,0,0,0,0,0,0,0,0,0,0,0,0,0,0,0,0,0,0,0,0,0,0,0,0,0.9714,0.9714,0,0.9752,0.9753,0.9753,0.9747,0.9746,0.9745,0.9745,0.9786,0.9787,0.9789,0,0,0,0,0,0,0,0,0,0,0,0,0,0.9634,0.9636,0.9714,0.9714,0.9715,0.9752,0.9753,0.9753,0.9747,0.9746,0.9745,0.9744,0.9785,0.9787,0.9789,0,0,0,0,0,0,0,0,0,0,0,0,0,0.9671,0.9636,0.9714,0.9716,0.9716,0.9752,0.9753,0.9754,0.9747,0.9746,0.9745,0.9744,0.9785,0.9787,0.979,0.9826,0,0,0.9798,0.9799,0,0,0,0,0,0,0,0,0.9669,0.9674,0.9715,0.9716,0.9716,0.9744,0.974,0.9778,0.9747,0.9735,0.9745,0.9743,0.9773,0.9776,0.9786,0.9828,0.983,0.9798,0.9799,0.98,0.9801,0,0,0,0,0,0,0,0.9666,0.9672,0.9729,0.9716,0.9717,0.9715,0.9719,0.9747,0.9759,0.9736,0.9736,0.9741,0.9773,0.9783,0.9787,0.983,0.9798,0.98,0.9802,0.9803,0.9903,0.9904,0,0,0,0,0,0,0.9663,0.967,0.9728,0.973,0.9689,0.9717,0.9722,0.9736,0.9759,0.9762,0.9741,0.974,0.9779,0.9784,0.9788,0.9832,0.98,0.9803,0.9804,0.9902,0.9904,0.9905,0,0,0,0,0,0,0.9661,0.9668,0.9726,0.97,0.9707,0.972,0.9736,0.9737,0.9748,0.9763,0.9765,0.975,0.9779,0.9784,0.9816,0.9833,0.9804,0.9806,0.9901,0.9903,0.9904,0.9919,0,0,0,0,0,0,0.9659,0.9667,0.9682,0.97,0.9709,0.9754,0.9737,0.9739,0.9752,0.9751,0.9771,0.9774,0.9778,0.9812,0.9819,0.9836,0.9808,0.9899,0.9902,0.9904,0.9917,0.9921,0.9925,0,0,0,0,0,0.9656,0.9685,0.9682,0.9689,0.9726,0.9755,0.976,0.9764,0.9753,0.9768,0.9777,0.9773,0.983,0.9816,0.9823,0.9841,0.9898,0.9901,0.9903,0.9916,0.992,0.9924,0,0,0,0,0,0,0.9669,0.9687,0.9685,0.9721,0.9736,0.9754,0.9772,0.9769,0.9789,0.9787,0.9791,0.9796,0.9828,0.9838,0.9822,0.9877,0.9863,0.9867,0.987,0.9874,0.9878,0.9875,0.9811,0,0,0,0,0,0.9676,0.9697,0.9712,0.9742,0.975,0.9759,0.9772,0.9774,0.979,0.9797,0.9809,0.9826,0.9847,0.9861,0.9882,0.9918,0.9922,0.9934,0.9938,0.9941,0.9944,0.9963,0.9969,0.9913,0.9913,0.9913,0,0,0.969,0.9703,0.9716,0.9745,0.9757,0.9779,0.9765,0.9789,0.9805,0.9801,0.9831,0.9841,0.9859,0.9893,0.9909,0.9902,0.996,0.9944,0.9946,0.9948,0.9966,0.9972,0.9976,0.9915,0.9914,0.9914,0,0,0.9728,0.974,0.9766,0.9778,0.9796,0.9802,0.9808,0.9826,0.9831,0.9862,0.9859,0.9878,0.9915,0.9928,0.994,0.998,0.9977,0.9987,1.0006,1.0024,1.0029,1.0033,1.0046,1.0051,0.999,0.999,0.999,0,0.9744,0.9777,0.978,0.9803,0.9816,0.9812,0.9838,0.9849,0.9874,0.9882,0.9874,0.992,0.9932,0.9969,0.9978,0.9988,0.9995,0.9985,1.0028,1.0032,1.0035,1.0049,1.0054,0.9991,0.9991,0.9991,0.9991,0,0.9795,0.9817,0.9836,0.9859,0.9873,0.9898,0.9905,0.9919,0.9919,0.9925,0.9956,0.997,0.9993,1.0002,1.0003,1.0038,1.0033,1.0027,1.0012,1.0042,1.0054,1.0059,0.9993,0.9993,0.9992,0.9992,0,0,0.9843,0.9865,0.9872,0.9882,0.9901,0.9918,0.9943,0.9964,0.9976,0.9993,1.0013,1.0043,1.0037,1.005,1.0052,1.0068,1.0098,1.0059,1.0059,1.0065,1.0137,1.0142,1.0148,1.0096,1.0097,1.0098,1.0135,0,0.9882,0.9924,0.9927,0.9965,0.9986,0.9981,1.0002,1.0016,1.0023,1.0041,1.0048,1.0069,1.0059,1.0067,1.0082,1.0091,1.0112,1.0088,1.0114,1.0115,1.011,1.0154,1.016,1.0195,1.014,1.0141,1.0142,0,0.9934,0.9951,0.9991,1.0005,1.0014,1.0033,1.0052,1.007,1.0085,1.0088,1.0102,1.0101,1.0126,1.011,1.0144,1.0127,1.0138,1.0144,1.0145,1.0148,1.013,1.0158,1.0206,1.0211,1.0149,1.0149,1.0148,0,0.9964,0.9997,1.0025,1.0033,1.0051,1.0064,1.0073,1.0087,1.0099,1.0116,1.0124,1.0143,1.0154,1.0169,1.0174,1.0162,1.0207,1.0192,1.021,1.021,1.022,1.022,1.0271,1.0228,1.0227,1.0227,1.0227,0,1.0007,1.0032,1.0038,1.0055,1.0082,1.0085,1.0112,1.0119,1.0131,1.015,1.0147,1.0165,1.017,1.0188,1.0191,1.0218,1.0223,1.0226,1.0227,1.0226,1.0226,1.0234,1.0231,1.0229,1.0228,1.0228,1.0228,0,1.0046,1.0051,1.0081,1.0095,1.0099,1.0118,1.013,1.0147,1.0152,1.0175,1.0181,1.019,1.0211,1.0216,1.0242,1.0244,1.0275,1.0274,1.027,1.027,1.0288,1.0286,1.0345,1.0353,1.0305,1.0306,1.0306,0,1.0073,1.0092,1.0107,1.0119,1.0127,1.0146,1.0158,1.0161,1.0174,1.0192,1.0206,1.0226,1.0243,1.0277,1.0285,1.0304,1.0303,1.0323,1.0306,1.0305,1.0303,1.0302,1.0303,1.0326,1.0326,1.0327,1.0327,0,1.0121,1.0122,1.0139,1.0157,1.0171,1.0186,1.0199,1.0209,1.0214,1.0228,1.0249,1.0262,1.0287,1.0307,1.0326,1.0335,1.0332,1.0332,1.0337,1.0337,1.0333,1.0335,1.0278,1.0331,1.0331,1.033,1.033,1.033,1.0154,1.017,1.0183,1.0202,1.0212,1.0225,1.024,1.0247,1.0264,1.0284,1.0285,1.0308,1.0321,1.0346,1.0356,1.0373,1.0367,1.0375,1.0377,1.0379,1.038,1.0331,1.0377,1.0377,1.0376,1.0376,1.0376,0,1.0201,1.0208,1.0226,1.0244,1.0259,1.0254,1.0269,1.0281,1.0301,1.0314,1.0329,1.0353,1.0372,1.0382,1.04,1.0413,1.0412,1.0417,1.0416,1.0418,1.0384,1.0377,1.0418,1.0418,1.0418,1.0418,1.0418,1.0418,1.0227,1.0253,1.0255,1.0286,1.0294,1.0315,1.0324,1.0335,1.0345,1.0371,1.0386,1.0392,1.0404,1.0423,1.044,1.0442,1.0449,1.0456,1.0457,1.0425,1.0421,1.0417,1.0411,1.0457,1.0457,1.049,1.049,1.049]}]]